シャイン-シャルダハ彗星

61P/Shajn-Schaldach (2001)

English version
Home page
Total 6,336 html files since Dec. 4, 1995
Updated on July 20, 2008

---------------------------------------------------------------------

・ プロフィール

・ 軌道要素

Epoch 2001 May  11.0 TT = JDT 2452040.5  
T 2001 May 9.00679 TT                                   Muraoka 
q   2.3301003            (2000.0)            P               Q
n   0.13218912     Peri.  216.62346     +0.91626955     -0.39983907
a   3.8165612      Node   166.88052     +0.38805283     +0.87115912
e   0.3894765      Incl.    6.08445     +0.09932326     +0.28497457
P   7.46
From 134 observations 1971-2000, mean residual 0".84.  Nongravitational
   parameters A1 = +1.34 +/- 0.20, A2 = -0.1361 +/- 0.0044.

・ 星図

・ 光度変化

        m1 = 12.0 + 5 logΔ + 10.0 log r(t + 65)

---------------------------------------------------------------------

軌道要素は村岡健治氏の計算によるものです。
星図は StellaNavigator Ver.2.0 for Windows (アストロアーツ 編著 / アスキー出版局刊) で作成したものです。
光度グラフはComet for Windowsで作成したものです。

---------------------------------------------------------------------

Copyright(C) 1995-2008 Seiichi Yoshida (comet@aerith.net). All rights reserved.